Theta_e
315 315 315 316 317 324 328 327 324 324 324 322 322 315 312 310 310 309 310 312 311 310 310 310 311 314 313 317 316 317 321 323 323 321 320 320 319 319 318 319 319 320 322 328 334
315 315 315 316 318 319 325 326 321 320 322 320 318 312 310 310 309 309 311 311 311 310 310 310 314 315 314 317 316 319 322 324 322 321 319 319 319 318 317 318 319 321 322 332 331
316 315 315 315 317 318 318 317 317 315 315 314 311 309 309 309 308 310 311 310 309 309 311 313 314 314 315 317 317 318 322 321 320 318 320 320 319 319 318 317 318 320 321 332 333
316 315 315 315 316 317 312 311 311 311 317 309 309 309 309 308 312 311 311 310 309 309 311 314 314 314 316 317 317 318 318 317 317 317 319 320 320 319 319 318 318 319 320 327 333
315 316 315 315 316 316 316 309 309 309 309 309 309 309 308 309 312 311 309 309 309 309 310 313 314 314 315 316 316 316 316 316 316 316 318 319 319 318 319 318 317 318 321 323 325
315 316 315 315 315 316 316 308 308 308 308 308 308 308 308 310 311 310 310 309 309 309 312 314 314 314 315 316 315 316 315 315 315 314 315 317 316 316 318 318 318 316 320 323 326
315 316 315 315 315 316 315 309 308 308 308 308 308 308 309 312 310 309 311 309 309 310 312 313 313 314 314 315 314 314 315 314 314 314 314 314 315 313 316 317 317 316 316 318 322
315 316 315 315 315 316 315 309 308 308 308 307 307 307 310 310 309 308 311 309 310 312 312 313 312 313 315 313 313 313 315 315 314 313 314 314 316 315 316 315 314 314 314 314 316
315 316 314 315 315 315 315 308 308 307 307 307 307 309 310 309 309 309 312 311 311 311 312 312 312 314 313 313 313 314 313 314 313 314 314 313 315 315 315 314 314 314 315 314 314
315 316 314 315 314 315 314 308 307 307 307 307 310 310 309 308 308 310 312 312 311 310 311 312 313 313 312 312 312 314 313 314 314 312 313 314 312 314 314 313 313 314 315 314 314
315 316 314 314 314 315 310 308 308 310 309 308 309 309 309 310 308 310 312 312 312 311 312 313 312 311 311 312 313 313 312 313 313 312 313 312 312 312 314 314 314 314 314 315 315
315 316 314 314 313 315 308 309 309 309 310 309 309 309 310 310 310 311 312 313 313 312 313 313 311 313 313 312 312 313 313 313 312 312 312 312 312 312 313 314 314 314 314 314 315
315 315 314 313 314 313 308 309 309 308 309 308 308 310 310 310 310 311 312 312 313 312 312 312 312 312 313 312 312 311 312 312 313 312 311 311 310 310 311 314 314 315 315 315 315
315 315 313 313 314 312 309 308 308 308 309 309 308 308 309 311 312 310 311 312 312 312 312 313 312 312 312 312 312 311 311 311 311 311 309 311 308 311 312 311 311 314 314 314 314
315 314 313 313 314 312 309 309 308 308 310 309 308 309 309 310 311 311 311 311 312 312 313 312 311 312 312 311 311 312 310 311 312 311 310 311 308 308 312 312 311 312 313 312 313
315 314 313 313 313 310 310 308 307 310 313 309 308 310 311 311 311 310 310 310 311 312 311 311 310 312 312 310 310 310 310 311 311 310 309 309 309 309 310 310 311 312 313 313 313
314 314 313 313 313 310 308 307 310 312 310 310 309 310 310 310 311 310 310 310 310 310 310 310 310 309 310 309 310 311 310 311 310 311 309 308 309 309 311 310 310 311 312 313 312
314 314 313 313 312 309 308 309 309 309 310 309 309 309 309 310 310 311 310 309 309 309 309 310 310 309 309 311 310 310 309 312 312 313 311 307 308 309 310 311 309 310 312 312 311
315 315 313 312 311 309 309 309 308 309 311 311 310 309 309 309 310 311 310 309 309 309 309 309 310 309 309 310 310 310 309 311 308 302 309 309 309 309 310 309 310 308 310 312 311
315 314 313 312 310 309 310 310 314 312 312 310 311 309 309 309 310 310 310 310 310 309 309 310 311 310 309 310 310 309 309 308 309 308 310 307 309 309 311 309 308 308 309 310 311
315 311 311 312 309 310 310 310 312 310 311 311 312 311 310 310 309 310 309 310 310 309 310 310 312 310 309 309 309 309 309 309 308 310 311 309 307 310 311 310 308 307 310 310 310
309 306 311 309 308 307 308 311 311 311 312 313 312 311 311 310 310 310 310 309 310 310 310 310 311 309 309 309 309 308 308 308 308 309 307 309 309 309 308 310 312 311 311 311 310
302 303 308 308 307 307 309 311 311 312 313 314 313 312 311 311 311 311 310 309 310 309 310 309 310 308 311 311 310 310 310 309 309 307 309 308 309 308 308 310 312 312 312 311 310
300 303 303 308 307 309 310 311 312 311 312 313 313 312 311 311 312 311 312 312 309 311 310 310 312 309 309 310 310 309 309 309 309 310 310 309 309 309 309 310 311 312 312 310 309
299 300 301 306 304 309 309 311 312 313 312 314 315 313 312 313 312 313 312 312 309 308 310 310 307 311 308 309 310 310 309 309 310 309 310 310 309 310 308 308 310 311 311 309 309
300 300 302 306 306 308 309 310 311 311 312 312 314 314 314 314 313 312 312 312 312 311 309 310 309 310 307 311 310 310 310 310 309 310 309 309 308 310 311 311 311 311 310 309 310
297 300 303 303 306 307 307 309 310 310 310 311 312 313 314 312 311 310 310 310 310 311 310 308 306 305 304 310 309 307 309 309 309 309 309 310 310 309 308 308 311 311 311 310 310
Wind_Speed
36 35 33 34 36 42 39 35 31 29 27 25 21 20 20 19 17 18 19 13 18 8 11 12 10 9 4 3 7 3 1 4 2 5 6 15 5 5 4 5 5 5 5 12 21
35 32 34 34 33 37 39 36 33 31 28 26 24 21 19 17 15 20 16 14 13 13 13 15 12 12 4 5 4 3 2 5 8 2 8 17 12 11 4 8 7 6 10 15 15
34 34 34 33 32 33 38 36 34 31 28 26 23 21 18 15 8 20 20 16 14 14 9 11 9 11 6 5 5 5 2 1 9 9 19 17 8 11 7 6 13 18 15 15 18
35 35 34 33 33 31 34 36 34 32 30 25 23 22 19 17 7 13 16 18 15 16 17 15 13 11 4 4 9 2 2 8 4 5 6 13 10 5 9 5 8 11 16 18 18
36 36 33 33 33 30 30 35 34 32 31 29 25 22 20 13 11 6 15 20 19 20 20 16 18 12 6 8 2 3 7 4 5 6 6 8 7 2 10 6 7 10 15 14 16
39 36 32 34 32 30 29 34 33 31 29 28 26 24 21 13 11 9 11 19 22 20 19 16 11 14 7 5 8 4 6 8 6 5 3 2 3 1 9 10 9 10 15 12 13
42 37 34 34 31 29 29 33 32 31 29 27 26 24 15 14 10 13 10 19 19 20 16 15 6 10 5 4 3 4 5 3 4 6 2 1 3 7 8 14 13 12 13 13 15
45 39 35 36 32 29 29 31 30 30 28 26 24 23 6 19 11 14 13 18 18 19 14 17 12 8 2 8 4 4 1 4 5 7 2 4 5 13 19 14 13 12 12 14 18
45 41 38 37 34 30 29 31 28 27 26 24 24 13 7 12 14 15 15 17 17 17 16 15 14 5 6 5 4 4 4 7 2 9 3 5 5 3 13 13 13 15 16 17 16
45 43 41 36 35 33 30 31 27 25 23 20 9 7 10 10 21 17 17 14 13 17 14 9 7 4 4 5 5 6 4 2 6 3 1 3 10 2 6 9 12 13 12 13 17
44 42 40 38 36 36 37 37 26 10 24 9 14 4 20 17 20 17 21 20 9 17 6 13 5 7 9 9 3 1 8 6 5 2 1 6 9 10 15 13 15 15 14 16 17
46 44 42 41 41 38 44 29 31 15 11 5 10 8 13 13 10 17 21 12 11 8 8 4 7 9 9 8 5 4 4 2 4 5 3 6 8 10 12 14 22 19 18 20 16
48 45 43 42 42 40 46 20 24 31 7 4 12 10 10 15 7 23 27 11 13 11 11 7 7 11 8 5 8 5 6 4 5 4 2 2 6 9 11 26 25 25 24 21 20
48 47 44 41 42 43 39 20 26 19 4 6 6 7 12 11 3 20 28 8 7 15 11 6 3 10 7 6 5 6 5 7 8 5 2 3 4 4 5 7 9 20 23 24 23
50 48 46 49 31 48 41 29 30 7 6 15 9 10 15 9 20 11 22 6 7 7 8 3 7 12 8 8 10 2 7 7 5 3 3 3 1 6 4 4 7 18 23 21 20
49 49 47 47 31 45 31 30 23 3 7 6 9 12 9 7 3 9 10 6 2 3 5 3 3 4 4 5 7 8 8 8 4 3 2 7 6 5 6 8 4 2 10 16 18
47 49 48 44 34 38 35 30 4 7 8 8 8 10 15 9 5 7 11 7 6 7 6 5 2 3 5 8 4 5 6 2 1 0 5 4 4 10 4 4 5 7 12 14 14
48 49 47 37 31 38 35 10 5 11 10 5 11 13 12 16 5 8 13 12 11 7 8 7 4 8 5 5 8 9 8 6 7 5 3 5 7 7 12 4 3 6 15 15 13
50 48 47 34 38 41 32 12 9 17 12 8 14 14 8 12 8 8 13 13 15 14 6 9 3 6 7 0 9 5 5 1 7 3 4 5 7 8 6 6 9 12 12 14 13
54 48 40 41 46 39 13 13 3 2 10 16 8 10 15 20 8 13 14 13 10 18 13 1 5 2 2 2 2 3 4 3 1 5 4 6 5 7 3 9 8 9 18 15 14
40 19 35 52 48 28 14 8 3 2 11 10 7 9 10 19 13 12 11 4 20 16 12 2 5 2 4 7 8 2 4 5 5 4 5 1 6 4 5 7 11 13 18 17 17
19 5 39 58 12 7 11 7 5 6 1 4 0 3 13 17 13 12 9 12 15 16 17 5 5 4 8 1 4 9 7 8 5 4 2 3 9 5 7 4 2 16 20 20 20
9 7 36 51 7 14 12 5 7 10 7 7 4 2 2 12 7 7 9 1 10 9 13 8 4 3 2 2 3 3 2 4 5 3 6 5 13 4 7 5 3 10 14 17 17
6 4 7 26 10 19 19 7 8 6 6 3 5 4 6 9 3 12 6 2 3 7 10 16 4 8 13 3 9 6 7 7 6 4 21 10 24 2 4 6 7 11 15 16 17
5 1 5 9 4 19 12 6 17 7 5 11 2 8 10 7 4 3 6 4 4 4 5 6 6 4 5 4 3 4 7 13 18 21 7 22 17 25 7 9 16 17 16 18 21
2 1 5 9 16 15 10 11 16 7 9 10 9 8 7 6 6 11 8 5 3 1 5 1 1 1 4 3 3 2 10 13 16 18 13 19 18 30 4 13 20 23 25 26 28
6 6 6 4 8 10 7 12 14 12 3 8 10 9 10 9 20 17 21 14 7 5 4 4 5 3 2 7 5 7 21 10 9 12 10 16 27 22 14 9 17 24 28 31 31
Wind_Direction
222 223 216 212 206 209 207 205 201 198 195 201 202 203 202 206 210 215 217 207 216 218 202 189 194 214 210 262 238 266 331 228 232 143 120 149 131 159 110 103 107 149 76 140 162
218 219 214 208 205 207 206 204 201 199 199 199 202 201 200 201 209 228 219 213 214 210 191 181 182 179 183 240 222 230 203 235 181 185 143 165 164 157 144 151 153 148 122 162 167
213 216 209 206 203 203 202 201 200 198 196 198 194 194 195 195 210 243 218 207 205 206 182 174 175 164 198 204 209 221 246 295 55 74 146 162 190 150 207 177 190 180 162 178 163
213 214 208 203 202 202 198 197 197 196 195 196 193 190 188 177 203 206 214 204 202 198 186 179 176 163 174 217 218 249 268 352 74 84 123 152 157 167 222 131 106 158 195 180 179
211 211 205 200 201 197 196 193 193 191 189 192 187 186 178 193 237 260 207 194 194 192 185 179 179 181 167 185 99 255 126 67 106 126 84 149 159 199 203 166 156 148 177 188 194
206 206 202 198 197 193 193 190 188 188 185 183 182 183 181 218 225 224 208 189 189 188 179 183 194 183 205 191 183 200 121 125 135 118 102 160 121 151 220 204 208 176 175 196 206
199 199 200 196 192 189 188 187 185 182 181 182 181 181 197 210 227 210 199 182 183 182 178 176 209 179 181 118 149 147 103 88 179 163 106 306 151 228 186 193 196 217 204 198 212
196 198 198 194 186 184 183 182 180 177 176 178 178 173 215 216 225 199 183 179 175 168 181 185 175 182 211 124 122 157 240 163 158 135 163 161 254 223 206 190 205 218 227 220 217
194 192 192 192 181 180 177 175 173 172 171 171 174 165 206 200 204 190 184 179 170 170 176 178 164 165 140 156 119 219 191 198 158 198 115 187 250 180 176 193 223 240 239 229 225
191 187 185 188 178 175 172 165 161 162 158 158 164 181 216 192 184 182 161 180 154 160 147 157 161 167 201 186 180 159 225 202 153 213 29 222 268 280 210 216 236 236 237 232 224
189 185 180 186 178 172 161 145 138 154 168 173 179 96 153 158 177 177 172 158 168 161 159 188 177 189 189 198 238 113 161 170 125 39 164 238 265 256 253 221 222 234 239 241 234
185 182 178 184 175 173 166 161 168 186 166 171 164 141 162 148 144 171 159 161 167 188 145 116 217 191 193 208 129 139 143 169 68 84 106 306 266 260 258 255 238 232 239 243 239
183 180 178 179 173 175 170 166 169 154 132 167 157 170 167 162 162 177 170 189 181 192 187 165 191 208 174 140 160 189 173 151 116 162 192 308 273 239 248 238 245 243 243 245 236
181 180 177 173 173 176 171 161 163 155 112 174 197 196 167 154 131 186 177 196 202 198 185 231 183 154 147 167 162 192 141 112 135 145 192 189 271 312 251 218 222 240 242 240 237
178 180 179 179 171 179 169 172 166 175 151 159 159 167 169 170 136 173 184 198 203 204 140 175 163 150 173 191 176 207 128 130 123 118 78 176 24 261 7 234 236 240 241 241 231
179 179 178 175 180 176 175 163 159 106 213 156 138 168 148 171 101 131 169 166 174 82 46 63 329 144 135 42 145 137 96 86 109 140 264 190 170 244 201 210 219 97 200 199 209
180 178 178 170 168 161 165 147 107 191 145 167 169 166 162 157 131 164 179 176 157 133 180 116 152 58 129 80 85 159 149 115 120 120 221 324 173 234 266 247 211 199 191 201 222
178 180 175 172 170 164 163 165 157 182 178 178 150 149 174 145 175 173 166 191 224 216 158 160 188 158 196 179 175 201 179 159 177 184 204 342 233 255 220 198 181 200 202 197 206
178 178 175 171 174 170 160 188 195 173 144 121 136 155 176 172 150 159 193 198 195 209 208 172 212 89 131 170 135 215 239 107 101 2 72 210 274 300 195 235 222 214 198 196 209
174 170 174 172 169 170 175 194 99 13 118 144 152 184 182 174 161 183 182 197 195 203 226 109 106 40 38 351 338 129 157 65 310 135 218 248 235 228 162 238 229 217 214 211 204
167 148 160 174 168 170 193 187 124 241 148 160 153 174 185 175 177 187 194 210 191 184 202 234 113 109 131 220 167 171 200 209 155 175 178 245 250 193 191 220 208 203 205 206 214
134 115 152 161 152 187 194 175 148 172 66 82 59 126 178 168 181 183 213 184 189 164 192 175 113 155 200 205 231 223 207 179 151 252 264 136 260 151 130 114 161 183 197 211 216
107 99 158 158 152 176 160 142 187 161 175 172 141 146 177 164 163 191 170 360 144 151 160 169 199 92 153 224 104 218 230 243 275 46 206 155 258 202 75 63 58 168 178 190 204
112 126 139 184 145 160 162 171 154 169 166 183 111 112 119 148 23 183 127 21 67 153 126 165 180 194 204 136 151 189 186 214 200 182 233 229 258 219 161 168 174 180 197 202 211
60 102 152 171 167 162 156 125 144 154 182 149 189 187 150 156 125 150 106 114 41 115 153 153 192 205 255 336 83 167 180 201 215 229 191 244 249 263 233 207 206 209 200 212 217
17 155 64 133 138 148 165 176 162 145 151 178 161 166 123 138 176 167 132 149 144 113 169 137 187 142 40 92 313 296 235 213 223 238 243 260 268 262 271 274 198 202 206 213 223
107 90 93 90 145 150 159 149 172 139 324 174 168 121 104 102 95 77 79 81 103 131 139 104 130 86 228 145 89 308 243 192 226 237 222 238 247 271 272 245 212 214 219 226 233